Weather History for Gainesville, FL

Change the Weather History Date:

Tuesday, December 30, 2014

  Actual Average Record
Temperature  
Mean Temperature 63 °F 54 °F  
Max Temperature 70 °F 66 °F 83 °F (1990)
Min Temperature 56 °F 42 °F 19 °F (1961)
Degree Days  
Heating Degree Days 2 11  
Month to date heating degree days 203 284  
Since 1 July heating degree days 468 445  
Cooling Degree Days 0 0  
Month to date cooling degree days 36 24  
Year to date cooling degree days 2599 2640  
Growing Degree Days 13 (Base 50)    
Moisture  
Dew Point 62 °F    
Average Humidity 83    
Maximum Humidity 100    
Minimum Humidity 66    
Precipitation  
Precipitation T in 0.08 in 1.68 in (1975)
Month to date precipitation 3.38 2.30  
Year to date precipitation 51.74 47.23  
Snow  
Snow 0.00 in 0.00 in 0.00 in ()
Month to date snowfall 0.0 0.0  
Since 1 July snowfall 0.0 0.0  
Snow Depth 0.00 in    
Sea Level Pressure  
Sea Level Pressure 30.19 in    
Wind  
Wind Speed 7 mph (North)    
Max Wind Speed 16 mph    
Max Gust Speed 20 mph    
Visibility 9 miles    
Events Rain    
T = Trace of Precipitation, MM = Missing Value Source: NWS Daily Summary

Daily Weather History Graph

Daily Weather History Graph

Search for Another Location

Airport:

Trip Planner

Search our weather history database for the weather conditions in past years. The results will help you decide how hot, cold, wet, or windy it might be!

Date:

Astronomy

Dec. 30, 2014 Rise Set
Actual Time 7:23 AM EST 5:39 PM EST
Civil Twilight 6:57 AM EST 6:05 PM EST
Nautical Twilight 6:27 AM EST 6:35 PM EST
Astronomical Twilight 5:58 AM EST 7:04 PM EST
Moon 1:37 PM EST (12/30) 2:00 AM EST (12/30)
Length of Visible Light 11h 08m
Length of Day
10h 16m
Waxing Gibbous, 71% of the Moon is Illuminated
Dec 30
Waxing Gibbous
Jan 4
Full
Jan 13
Last Quarter
Jan 20
New
Jan 26
First Quarter

Hourly Weather History & Observations

Time (EST) Temp. Dew Point Humidity Pressure Visibility Wind Dir Wind Speed Gust Speed Precip Events Conditions
12:13 AM 69.1 °F 68.0 °F 96% 30.09 in 9.0 mi WSW 6.9 mph - N/A   Overcast
12:53 AM 69.1 °F 69.1 °F 100% 30.08 in 6.0 mi SW 3.5 mph - 0.00 in Rain Light Rain
1:53 AM 69.1 °F 69.1 °F 100% 30.07 in 5.0 mi SSW 4.6 mph - 0.00 in   Overcast
2:41 AM 69.1 °F 69.1 °F 100% 30.09 in 8.0 mi Calm Calm - N/A   Overcast
2:53 AM 69.1 °F 68.0 °F 96% 30.08 in 7.0 mi Calm Calm - N/A   Overcast
3:53 AM 69.1 °F 68.0 °F 96% 30.09 in 10.0 mi West 5.8 mph - 0.00 in   Overcast
3:59 AM 69.1 °F 68.0 °F 96% 30.10 in 9.0 mi West 5.8 mph - N/A   Overcast
4:45 AM 68.0 °F 66.9 °F 96% 30.10 in 10.0 mi West 3.5 mph - 0.00 in   Overcast
4:53 AM 68.0 °F 66.9 °F 96% 30.10 in 10.0 mi West 4.6 mph - 0.00 in   Overcast
5:53 AM 66.9 °F 66.0 °F 97% 30.12 in 10.0 mi NNW 5.8 mph - N/A   Overcast
6:00 AM 66.9 °F 66.0 °F 97% 30.12 in 8.0 mi NNW 5.8 mph - N/A   Overcast
6:35 AM 66.0 °F 66.0 °F 100% 30.13 in 2.0 mi NNW 6.9 mph - N/A   Overcast
6:43 AM 66.0 °F 66.0 °F 100% 30.14 in 2.5 mi North 8.1 mph - N/A   Overcast
6:53 AM 66.0 °F 66.0 °F 100% 30.14 in 3.0 mi NNW 5.8 mph - N/A   Overcast
7:01 AM 66.0 °F 64.9 °F 96% 30.15 in 1.8 mi NNW 6.9 mph - N/A   Overcast
7:16 AM 64.9 °F 64.9 °F 100% 30.16 in 3.0 mi NNW 6.9 mph - N/A   Overcast
7:48 AM 64.4 °F 64.4 °F 100% 30.18 in 10.0 mi North 5.8 mph - N/A   Overcast
7:53 AM 64.9 °F 64.0 °F 97% 30.18 in 10.0 mi NNW 6.9 mph - N/A   Overcast
8:26 AM 64.9 °F 64.0 °F 97% 30.19 in 10.0 mi North 4.6 mph - N/A   Overcast
8:42 AM 64.9 °F 64.0 °F 97% 30.20 in 10.0 mi NNW 3.5 mph - N/A   Overcast
8:53 AM 64.9 °F 64.0 °F 97% 30.20 in 10.0 mi Variable 3.5 mph - N/A   Overcast
9:00 AM 66.0 °F 63.0 °F 90% 30.21 in 10.0 mi North 4.6 mph - N/A   Overcast
9:03 AM 66.0 °F 63.0 °F 90% 30.21 in 10.0 mi NW 4.6 mph - N/A   Overcast
9:16 AM 66.0 °F 63.0 °F 90% 30.22 in 10.0 mi Variable 4.6 mph - N/A   Overcast
9:53 AM 64.9 °F 62.1 °F 90% 30.23 in 10.0 mi NNW 5.8 mph - N/A   Overcast
10:00 AM 64.9 °F 62.1 °F 90% 30.23 in 10.0 mi North 4.6 mph - N/A   Overcast
10:08 AM 64.9 °F 62.1 °F 90% 30.23 in 10.0 mi NW 3.5 mph - N/A   Overcast
10:53 AM 66.9 °F 61.0 °F 81% 30.23 in 10.0 mi NNW 8.1 mph - N/A   Overcast
11:53 AM 66.9 °F 60.1 °F 79% 30.21 in 10.0 mi NNW 10.4 mph - N/A   Overcast
12:53 PM 64.9 °F 59.0 °F 81% 30.19 in 10.0 mi North 10.4 mph - N/A   Overcast
1:53 PM 66.0 °F 57.9 °F 75% 30.18 in 10.0 mi North 6.9 mph - N/A   Overcast
2:39 PM 69.1 °F 57.0 °F 65% 30.17 in 10.0 mi NE 8.1 mph - N/A   Scattered Clouds
2:53 PM 69.1 °F 57.0 °F 65% 30.17 in 10.0 mi NE 8.1 mph - N/A   Clear
3:53 PM 69.1 °F 57.0 °F 65% 30.18 in 10.0 mi North 6.9 mph - N/A   Clear
4:53 PM 68.0 °F 57.0 °F 68% 30.20 in 10.0 mi NNE 8.1 mph - N/A   Mostly Cloudy
5:03 PM 68.0 °F 55.9 °F 65% 30.20 in 10.0 mi North 6.9 mph - N/A   Overcast
5:16 PM 66.9 °F 57.0 °F 70% 30.21 in 10.0 mi North 5.8 mph - N/A   Mostly Cloudy
5:53 PM 64.9 °F 57.0 °F 75% 30.22 in 10.0 mi North 4.6 mph - N/A   Mostly Cloudy
6:53 PM 64.0 °F 57.0 °F 78% 30.23 in 10.0 mi NNE 4.6 mph - N/A   Overcast
7:53 PM 61.0 °F 55.9 °F 83% 30.26 in 10.0 mi ENE 10.4 mph - N/A   Partly Cloudy
8:12 PM 60.1 °F 55.9 °F 86% 30.27 in 10.0 mi ENE 10.4 mph - N/A   Mostly Cloudy
8:53 PM 60.1 °F 55.9 °F 86% 30.29 in 10.0 mi ENE 12.7 mph - N/A   Overcast
9:44 PM 60.1 °F 55.0 °F 83% 30.29 in 10.0 mi ENE 11.5 mph - N/A   Overcast
9:53 PM 60.1 °F 55.0 °F 83% 30.29 in 10.0 mi ENE 10.4 mph - N/A   Overcast
10:53 PM 60.1 °F 55.0 °F 83% 30.30 in 10.0 mi NE 9.2 mph - N/A   Overcast
11:27 PM 57.9 °F 54.0 °F 87% 30.29 in 10.0 mi ENE 6.9 mph - N/A   Scattered Clouds
11:53 PM 55.9 °F 53.1 °F 90% 30.28 in 10.0 mi NE 4.6 mph - N/A   Clear